GW2476 Weather Reports


time (UTC)temp
C
wind
direction
speed
KPH
gust
KPH
rain 1hr
cm
rain 24hr
cm
rain mn
cm
humidity
%
barometer
mb
20260504202620 23 225 3.2 9.7 0.00 0.00 0.00 38 1007.4
20260504202117 23 206 4.8 11.3 0.00 0.00 0.00 41 1007.4
20260504201614 22 246 4.8 11.3 0.00 0.00 0.00 39 1007.5
20260504201112 22 201 6.4 9.7 0.00 0.00 0.00 39 1007.5
20260504200609 22 168 4.8 9.7 0.00 0.00 0.00 43 1007.5
20260504200105 21 193 8.0 14.5 0.00 0.00 0.00 41 1007.7
20260504195601 23 238 8.0 14.5 0.00 0.00 0.00 39 1007.8
20260504195057 22 256 4.8 11.3 0.00 0.00 0.00 39 1007.9
20260504194554 22 207 6.4 8.0 0.00 0.00 0.00 41 1007.9
20260504194050 21 286 4.8 9.7 0.00 0.00 0.00 40 1007.9
20260504193546 22 194 4.8 8.0 0.00 0.00 0.00 41 1008.1
20260504193045 22 307 4.8 12.9 0.00 0.00 0.00 39 1008.0
20260504192543 21 53 4.8 8.0 0.00 0.00 0.00 40 1008.3
20260504192041 21 196 3.2 4.8 0.00 0.00 0.00 44 1008.3
20260504191538 21 240 4.8 9.7 0.00 0.00 0.00 46 1008.4
20260504191034 22 215 8.0 12.9 0.00 0.00 0.00 39 1008.7
20260504190531 22 201 8.0 11.3 0.00 0.00 0.00 43 1008.5
20260504190027 22 211 9.7 11.3 0.00 0.00 0.00 39 1008.5
20260504185524 21 327 3.2 3.2 0.00 0.00 0.00 46 1008.8
20260504185021 21 175 4.8 11.3 0.00 0.00 0.00 46 1008.7
20260504184516 22 172 12.9 17.7 0.00 0.00 0.00 42 1008.4
20260504184012 22 157 4.8 16.1 0.00 0.00 0.00 42 1008.9
20260504183509 22 211 8.0 11.3 0.00 0.00 0.00 43 1008.8
20260504183008 22 79 4.8 8.0 0.00 0.00 0.00 45 1009.0
20260504182504 21 201 8.0 9.7 0.00 0.00 0.00 43 1008.9
20260504182001 21 250 4.8 11.3 0.00 0.00 0.00 41 1008.9
20260504181458 21 207 8.0 11.3 0.00 0.00 0.00 40 1009.0
20260504180956 21 216 11.3 20.9 0.00 0.00 0.00 41 1009.0
20260504180455 21 252 6.4 9.7 0.00 0.00 0.00 38 1009.3
20260504175953 21 197 8.0 12.9 0.00 0.00 0.00 42 1009.4
20260504175450 21 336 3.2 9.7 0.00 0.00 0.00 40 1009.4
20260504174947 21 225 8.0 11.3 0.00 0.00 0.00 41 1009.2
20260504174445 21 263 4.8 14.5 0.00 0.00 0.00 41 1009.4
20260504173942 21 349 4.8 16.1 0.00 0.00 0.00 41 1009.4
20260504173438 20 115 4.8 8.0 0.00 0.00 0.00 47 1009.4
20260504172936 21 3 1.6 9.7 0.00 0.00 0.00 41 1009.5
20260504172432 22 239 3.2 8.0 0.00 0.00 0.00 44 1009.4
20260504171929 20 343 6.4 8.0 0.00 0.00 0.00 42 1009.4
20260504171426 20 168 3.2 9.7 0.00 0.00 0.00 48 1009.5
20260504170923 20 190 8.0 9.7 0.00 0.00 0.00 50 1009.8
20260504170419 20 180 8.0 11.3 0.00 0.00 0.00 41 1009.5
20260504160338 18 222 4.8 4.8 0.00 0.00 0.00 44 1010.5
20260504150802 17 231 4.8 9.7 0.00 0.00 0.00 47 1011.2
20260504150259 16 170 3.2 4.8 0.00 0.00 0.00 45 1011.4
20260504141229 15 259 4.8 4.8 0.00 0.00 0.00 46 1011.7
20260504140725 16 199 4.8 8.0 0.00 0.00 0.00 47 1011.8
20260504140221 15 218 8.0 14.5 0.00 0.00 0.00 48 1012.0
20260504130650 13 28 1.6 4.8 0.00 0.00 0.00 53 1012.2
20260504130146 13 71 3.2 9.7 0.00 0.00 0.00 55 1012.4
20260504120110 10 324 4.8 8.0 0.00 0.00 0.00 67 1012.5
20260504110538 5 56 1.6 1.6 0.00 0.00 0.00 93 1012.7
20260504100454 2 1 1.6 3.2 0.00 0.00 0.00 98 1012.7
20260504081847 1 45 0.0 1.6 0.00 0.00 0.00 97 1012.8
20260504081343 2 52 1.6 1.6 0.00 0.00 0.00 97 1012.9
20260504080839 1 46 0.0 1.6 0.00 0.00 0.00 97 1012.9
20260504080337 2 34 1.6 1.6 0.00 0.00 0.00 97 1012.9
20260504070304 2 14 0.0 1.6 0.00 0.00 0.00 95 1012.9
20260504060224 2 41 1.6 1.6 0.00 0.00 0.00 96 1012.9
20260504050652 3 21 0.0 1.6 0.00 0.00 0.00 94 1013.0
20260504050149 3 345 1.6 1.6 0.00 0.00 0.00 94 1012.9
20260504045646 3 24 0.0 1.6 0.00 0.00 0.00 94 1013.1
20260504045146 3 42 0.0 3.2 0.00 0.00 0.00 93 1013.0
20260504044644 3 39 0.0 1.6 0.00 0.00 0.00 93 1012.9
20260504044141 3 36 0.0 1.6 0.00 0.00 0.00 93 1012.9
20260504043638 3 36 0.0 1.6 0.00 0.00 0.00 93 1013.0
20260504043135 3 40 0.0 1.6 0.00 0.00 0.00 92 1012.8
20260504042632 3 38 0.0 1.6 0.00 0.00 0.00 92 1013.0
20260504042129 3 14 0.0 1.6 0.00 0.00 0.00 92 1013.1
20260504041625 3 32 1.6 4.8 0.00 0.00 0.00 91 1012.9
20260504041121 4 26 0.0 1.6 0.00 0.00 0.00 91 1012.9
20260504040619 3 35 0.0 1.6 0.00 0.00 0.00 90 1012.9
20260504040115 4 64 0.0 1.6 0.00 0.00 0.00 91 1012.6
20260504035612 3 23 0.0 1.6 0.00 0.00 0.00 91 1012.8
20260504035108 3 19 1.6 1.6 0.00 0.00 0.00 90 1012.7
20260504034606 4 46 1.6 1.6 0.00 0.00 0.00 90 1012.8
20260504034103 4 29 0.0 1.6 0.00 0.00 0.00 90 1012.6
20260504033601 4 16 0.0 1.6 0.00 0.00 0.00 90 1012.8
20260504033058 4 35 0.0 1.6 0.00 0.00 0.00 90 1012.8
20260504032555 5 18 0.0 1.6 0.00 0.00 0.00 90 1012.8
20260504032052 5 14 0.0 1.6 0.00 0.00 0.00 91 1012.7
20260504031549 5 3 1.6 3.2 0.00 0.00 0.00 90 1012.6
20260504031045 5 5 1.6 1.6 0.00 0.00 0.00 90 1012.8
20260504030542 5 39 0.0 3.2 0.00 0.00 0.00 89 1012.8
20260504030038 5 33 0.0 1.6 0.00 0.00 0.00 88 1012.7
20260504025536 5 31 1.6 1.6 0.00 0.00 0.00 87 1012.9
20260504025032 5 32 1.6 1.6 0.00 0.00 0.00 88 1012.8
20260504024529 5 348 1.6 3.2 0.00 0.00 0.00 85 1012.9
20260504024026 5 25 0.0 1.6 0.00 0.00 0.00 84 1013.0
20260504023523 6 25 0.0 3.2 0.00 0.00 0.00 86 1013.0
20260504023018 6 22 0.0 1.6 0.00 0.00 0.00 85 1012.9
20260504022514 6 16 1.6 1.6 0.00 0.00 0.00 84 1012.9
20260504022011 6 359 0.0 1.6 0.00 0.00 0.00 84 1012.9
20260504021509 6 25 0.0 1.6 0.00 0.00 0.00 84 1012.8
20260504021006 6 39 1.6 1.6 0.00 0.00 0.00 84 1012.8
20260504020502 6 56 1.6 3.2 0.00 0.00 0.00 84 1013.0
20260504015959 7 40 0.0 0.0 0.00 0.00 0.00 83 1012.8
20260504015455 7 49 0.0 1.6 0.00 0.00 0.00 83 1012.8
20260504014951 7 8 0.0 4.8 0.00 0.00 0.00 81 1012.6
20260504014447 7 19 0.0 1.6 0.00 0.00 0.00 81 1012.5
20260504013944 7 19 1.6 3.2 0.00 0.00 0.00 80 1012.6
20260504013443 7 37 1.6 1.6 0.00 0.00 0.00 80 1012.5
20260504012938 8 14 0.0 1.6 0.00 0.00 0.00 78 1012.5
20260504012437 8 15 0.0 1.6 0.00 0.00 0.00 77 1012.6
20260504011934 8 15 0.0 1.6 0.00 0.00 0.00 74 1012.4
20260504011431 8 32 0.0 1.6 0.00 0.00 0.00 75 1012.5
20260504010926 8 22 0.0 1.6 0.00 0.00 0.00 75 1012.5
20260504010423 8 56 0.0 0.0 0.00 0.00 0.00 73 1012.4
20260504005919 8 17 0.0 1.6 0.00 0.00 0.00 75 1012.3
20260504005415 8 16 0.0 1.6 0.00 0.00 0.00 73 1012.3
20260504004913 9 20 0.0 1.6 0.00 0.00 0.00 73 1012.4
20260504004411 9 19 0.0 0.0 0.00 0.00 0.00 72 1012.4
20260504003908 10 19 0.0 1.6 0.00 0.00 0.00 71 1012.2
20260504003404 10 8 0.0 1.6 0.00 0.00 0.00 68 1012.0
20260504002900 10 10 1.6 1.6 0.00 0.00 0.00 65 1012.0
20260504002358 11 55 1.6 1.6 0.00 0.00 0.00 63 1011.9
20260504001855 11 55 0.0 1.6 0.00 0.00 0.00 60 1011.9
20260504001353 11 78 1.6 4.8 0.00 0.00 0.00 56 1011.9
20260504000849 12 351 1.6 3.2 0.00 0.00 0.00 53 1011.8
20260504000346 12 19 1.6 3.2 0.00 0.00 0.00 53 1011.9
20260503235844 12 22 0.0 1.6 0.00 0.00 0.00 52 1012.0
20260503235341 12 23 0.0 1.6 0.00 0.00 0.00 52 1011.7
20260503234838 13 23 0.0 1.6 0.00 0.00 0.00 51 1011.8
20260503234336 13 355 0.0 1.6 0.00 0.00 0.00 47 1011.7
20260503233834 13 355 0.0 0.0 0.00 0.00 0.00 47 1011.8
20260503233329 14 353 0.0 1.6 0.00 0.00 0.00 43 1011.7
20260503232826 14 355 1.6 1.6 0.00 0.00 0.00 41 1011.7
20260503232323 14 349 1.6 8.0 0.00 0.00 0.00 43 1011.8
20260503231821 14 271 4.8 8.0 0.00 0.00 0.00 41 1011.7
20260503231318 14 321 3.2 4.8 0.00 0.00 0.00 40 1011.8
20260503230814 14 334 4.8 8.0 0.00 0.00 0.00 41 1011.6
20260503230311 14 307 3.2 4.8 0.00 0.00 0.00 43 1011.7
20260503225809 14 333 1.6 3.2 0.00 0.00 0.00 45 1011.8
20260503225305 14 355 0.0 3.2 0.00 0.00 0.00 49 1011.7
20260503224801 13 3 0.0 1.6 0.00 0.00 0.00 47 1011.6
20260503224258 14 12 0.0 1.6 0.00 0.00 0.00 45 1011.8
20260503223756 14 12 0.0 1.6 0.00 0.00 0.00 44 1011.6
20260503223253 14 31 0.0 8.0 0.00 0.00 0.00 43 1011.6
20260503222749 14 14 3.2 4.8 0.00 0.00 0.00 45 1011.7
20260503222247 14 11 0.0 4.8 0.00 0.00 0.00 44 1011.6
20260503221746 14 15 0.0 4.8 0.00 0.00 0.00 44 1011.7
20260503221243 14 57 1.6 1.6 0.00 0.00 0.00 44 1011.7
20260503220739 14 11 0.0 3.2 0.00 0.00 0.00 44 1011.8
20260503220236 14 43 1.6 4.8 0.00 0.00 0.00 45 1011.8
20260503215733 14 340 3.2 9.7 0.00 0.00 0.00 43 1011.9
20260503215230 14 45 1.6 3.2 0.00 0.00 0.00 44 1011.8
20260503214728 14 86 1.6 11.3 0.00 0.00 0.00 45 1011.9
20260503214225 14 305 4.8 8.0 0.00 0.00 0.00 44 1011.8
20260503213723 14 45 1.6 9.7 0.00 0.00 0.00 45 1011.8
20260503213220 13 18 1.6 3.2 0.00 0.00 0.00 44 1011.7
20260503212717 13 338 0.0 4.8 0.00 0.00 0.00 44 1011.8
20260503212214 15 20 8.0 11.3 0.00 0.00 0.00 43 1011.9
20260503211712 14 297 3.2 4.8 0.00 0.00 0.00 44 1011.7
20260503211208 15 25 4.8 12.9 0.00 0.00 0.00 42 1011.7
20260503210704 15 21 3.2 9.7 0.00 0.00 0.00 42 1011.7
20260503210201 14 49 3.2 9.7 0.00 0.00 0.00 45 1011.7
20260503205655 14 291 3.2 12.9 0.00 0.00 0.00 40 1011.7
20260503205152 15 333 3.2 14.5 0.00 0.00 0.00 43 1011.8
20260503204649 15 348 4.8 16.1 0.00 0.00 0.00 44 1011.9
20260503204147 14 286 4.8 11.3 0.00 0.00 0.00 45 1011.7
20260503203643 13 35 3.2 11.3 0.00 0.00 0.00 46 1011.8
20260503203141 13 42 3.2 11.3 0.00 0.00 0.00 44 1011.7